Bellingham, WA

8:45 AM PST on February 27, 2017 (GMT -0800)
Bellingham International

Weather History for KBLI - October, 2013

Change the Weather History Date:

Wednesday, October 23, 2013

  Actual Average Record
Temperature  
Mean Temperature 50 °F 48 °F  
Max Temperature 64 °F 56 °F 69 °F (1982)
Min Temperature 35 °F 41 °F 30 °F (1954)
Degree Days  
Heating Degree Days 15 17  
Month to date heating degree days 351 330  
Cooling Degree Days 0 0  
Month to date cooling degree days 0 0  
Year to date cooling degree days 95 42  
Moisture  
Dew Point 42 °F    
Average Humidity 80    
Maximum Humidity 100    
Minimum Humidity 60    
Precipitation  
Precipitation 0.00 in 0.14 in 1.06 in (2009)
Month to date precipitation 1.75 2.43  
Year to date precipitation 22.25 24.56  
Sea Level Pressure  
Sea Level Pressure 30.05 in    
Wind  
Wind Speed 1 mph (NNW)    
Max Wind Speed 7 mph    
Max Gust Speed 10 mph    
Visibility 4 miles    
Events Fog    
T = Trace of Precipitation, MM = Missing Value Source: NWS Daily Summary

Daily Weather History Graph

Daily Weather History Graph

Search for Another Location

Airport or City:

Trip Planner

Search our weather history database for the weather conditions in past years. The results will help you decide how hot, cold, wet, or windy it might be!

Date:

Astronomy

Oct. 23, 2013 Rise Set
Actual Time 7:43 AM PDT 6:04 PM PDT
Civil Twilight 7:10 AM PDT 6:37 PM PDT
Nautical Twilight 6:34 AM PDT 7:13 PM PDT
Astronomical Twilight 5:57 AM PDT 7:50 PM PDT
Moon 9:28 PM PDT (10/23) 12:17 PM PDT (10/23)
Length of Visible Light 11h 26m
Length of Day
10h 21m
Waning Gibbous, 78% of the Moon is Illuminated
Oct 23
Waning Gibbous
Oct 26
Last Quarter
Nov 3
New
Nov 9
First Quarter
Nov 17
Full

Hourly Weather History & Observations

Time (PDT) Temp. Dew Point Humidity Pressure Visibility Wind Dir Wind Speed Gust Speed Precip Events Conditions
12:09 AM 42.8 °F 42.8 °F 100% 30.05 in 0.2 mi Calm Calm - N/A Fog Fog
12:40 AM 44.6 °F 42.8 °F 93% 30.05 in 0.2 mi Calm Calm - N/A Fog Fog
12:53 AM 44.1 °F 43.0 °F 96% 30.07 in 0.2 mi Calm Calm - N/A Fog Fog
1:03 AM 44.6 °F 42.8 °F 93% 30.05 in 0.2 mi Calm Calm - N/A Fog Fog
1:51 AM 42.8 °F 42.8 °F 100% 30.05 in 0.2 mi Calm Calm - N/A Fog Fog
1:53 AM 43.0 °F 42.1 °F 97% 30.08 in 0.2 mi Calm Calm - N/A Fog Fog
2:19 AM 42.8 °F 42.8 °F 100% 30.05 in 0.2 mi Calm Calm - 0.01 in Fog Fog
2:42 AM 42.8 °F 42.8 °F 100% 30.05 in 0.2 mi Calm Calm - 0.01 in Fog Fog
2:53 AM 43.0 °F 42.1 °F 97% 30.08 in 0.2 mi Calm Calm - 0.01 in Fog Fog
3:06 AM 42.8 °F 41.0 °F 93% 30.05 in 0.2 mi Calm Calm - N/A Fog Fog
3:35 AM 42.8 °F 41.0 °F 93% 30.05 in 0.2 mi Calm Calm - N/A Fog Fog
3:45 AM 42.8 °F 41.0 °F 93% 30.05 in 0.2 mi Calm Calm - N/A Fog Fog
3:53 AM 42.1 °F 41.0 °F 96% 30.07 in 0.2 mi Calm Calm - N/A Fog Fog
4:53 AM 39.9 °F 39.0 °F 97% 30.07 in 0.2 mi Calm Calm - N/A Fog Fog
5:53 AM 39.0 °F 37.9 °F 96% 30.06 in 0.2 mi Calm Calm - N/A Fog Fog
6:53 AM 37.0 °F 36.0 °F 96% 30.07 in 0.2 mi Calm Calm - N/A Fog Fog
7:10 AM 37.4 °F 35.6 °F 93% 30.04 in 0.2 mi Calm Calm - N/A Fog Fog
7:20 AM 37.4 °F 35.6 °F 93% 30.04 in 0.2 mi Calm Calm - N/A Fog Fog
7:53 AM 36.0 °F 35.1 °F 97% 30.07 in 0.2 mi Calm Calm - N/A Fog Fog
8:19 AM 37.4 °F 35.6 °F 93% 30.05 in 1.0 mi Calm Calm - N/A   Mostly Cloudy
8:53 AM 39.0 °F 37.9 °F 96% 30.09 in 1.0 mi Calm Calm - N/A   Mostly Cloudy
9:20 AM 41.0 °F 41.0 °F 100% 30.06 in 10.0 mi Calm Calm - N/A   Partly Cloudy
9:53 AM 45.0 °F 43.0 °F 93% 30.08 in 10.0 mi Calm Calm - N/A   Partly Cloudy
10:53 AM 50.0 °F 45.0 °F 83% 30.09 in 10.0 mi Calm Calm - N/A   Partly Cloudy
11:53 AM 55.9 °F 46.0 °F 69% 30.08 in 10.0 mi NNE 4.6 mph - N/A   Clear
12:53 PM 57.0 °F 48.9 °F 74% 30.07 in 10.0 mi SE 3.5 mph - N/A   Clear
1:53 PM 63.0 °F 48.0 °F 58% 30.04 in 10.0 mi NNE 4.6 mph - N/A   Clear
2:53 PM 60.1 °F 50.0 °F 69% 30.03 in 10.0 mi West 5.8 mph - N/A   Clear
3:53 PM 59.0 °F 50.0 °F 72% 30.02 in 10.0 mi WNW 3.5 mph - N/A   Clear
4:53 PM 57.9 °F 46.9 °F 67% 30.02 in 10.0 mi Calm Calm - N/A   Clear
5:53 PM 53.1 °F 46.9 °F 80% 30.01 in 10.0 mi Calm Calm - N/A   Clear
6:53 PM 48.0 °F 45.0 °F 89% 30.02 in 10.0 mi Calm Calm - N/A   Clear
7:53 PM 46.0 °F 43.0 °F 89% 30.02 in 10.0 mi Calm Calm - N/A   Clear
8:53 PM 44.1 °F 42.1 °F 93% 30.03 in 10.0 mi Calm Calm - N/A   Clear
9:53 PM 43.0 °F 41.0 °F 93% 30.04 in 10.0 mi Calm Calm - N/A   Clear
10:42 PM 41.0 °F 39.2 °F 93% 30.02 in 8.0 mi Calm Calm - N/A   Partly Cloudy
10:51 PM 39.2 °F 39.2 °F 100% 30.02 in 1.5 mi Calm Calm - N/A   Scattered Clouds
10:53 PM 41.0 °F 39.0 °F 93% 30.04 in 1.0 mi Calm Calm - N/A   Mist
10:59 PM 41.0 °F 39.2 °F 93% 30.02 in 0.5 mi Calm Calm - N/A Fog Fog
11:09 PM 42.8 °F 39.2 °F 87% 30.02 in 0.2 mi Calm Calm - N/A Fog Fog
11:20 PM 41.0 °F 39.2 °F 93% 30.02 in 0.2 mi Calm Calm - N/A Fog Fog
11:28 PM 41.0 °F 39.2 °F 93% 30.02 in 1.0 mi Calm Calm - N/A   Mist
11:34 PM 39.2 °F 39.2 °F 100% 30.02 in 3.0 mi Calm Calm - N/A   Overcast
11:53 PM 41.0 °F 39.0 °F 93% 30.05 in 10.0 mi Calm Calm - N/A   Scattered Clouds